Station 46254 - SCRIPPS Nearshore, CA (201) Image indicating link to RSS feed of recent meteorological observations for station 46254


Conditions at 46254 as of
(4:26 pm PDT)
2326 GMT on 04/14/2024:
     

Click on the graph icon in the table below to see a time series plot of the last five days of that observation.

5-day plot - Wave Height Wave Height (WVHT): 3.6 ft
5-day plot - Dominant Wave Period Dominant Wave Period (DPD): 10 sec
5-day plot - Average Wave Period Average Period (APD): 7.4 sec
5-day plot - Mean Wave Direction Mean Wave Direction (MWD):WNW ( 282 deg true )
5-day plot - Water Temperature Water Temperature (WTMP): 60.8 °F
Previous observations
TIME
(PDT)
5-day plot - Wind Direction
WDIR
 
5-day plot - Wind Speed
WSPD
kts
5-day plot - Wind Gust
GST
kts
5-day plot - Wave Height
WVHT
ft
5-day plot - Dominant Wave Period
DPD
sec
5-day plot - Average Wave Period
APD
sec
5-day plot - Mean Wave Direction
MWD
 
5-day plot - Atmospheric Pressure
PRES
in
5-day plot - Pressure Tendency
PTDY
in
5-day plot - Air Temperature
ATMP
°F
5-day plot - Water Temperature
WTMP
°F
5-day plot - Dew Point
DEWP
°F
5-day plot - Salinity
SAL
psu
5-day plot - Visibility
VIS
nmi
5-day plot - Tide (above MLLW)
TIDE
ft
2024-04-14 03:56 pm--- 3.3 96.8WNW--- 61.0----
2024-04-14 03:26 pm--- 3.3 107.5WNW--- 60.8----
2024-04-14 02:56 pm--- 3.3 107.5WNW--- 60.3----
2024-04-14 02:26 pm--- 3.0 117.5WNW--- 60.6----
2024-04-14 01:56 pm--- 3.0 117.7WNW--- 60.8----
2024-04-14 01:26 pm--- 2.6 117.5WNW--- 60.6----
2024-04-14 12:56 pm--- 2.6 117.5WNW--- 60.4----
2024-04-14 12:26 pm--- 2.6 117.5WNW--- 60.4----
2024-04-14 11:56 am--- 2.3 117.6WNW--- 60.3----
2024-04-14 11:26 am--- 2.3 127.8WNW--- 60.3----
2024-04-14 10:56 am--- 2.3 97.2WNW--- 60.4----
2024-04-14 10:26 am--- 2.3 117.1WNW--- 60.8----
2024-04-14 09:56 am--- 2.3 117.0WNW--- 60.1----
2024-04-14 09:26 am--- 2.3 126.7WNW--- 59.9----
2024-04-14 08:56 am--- 2.3 116.6WNW--- 59.5----
2024-04-14 08:26 am--- 2.0 116.0WNW--- 59.4----
2024-04-14 07:56 am--- 2.0 55.6 W--- 59.2----
2024-04-14 07:26 am--- 2.0 105.8WNW--- 59.2----
2024-04-14 06:56 am--- 2.0 115.5WNW--- 59.2----
2024-04-14 06:26 am--- 2.0 135.1 W--- 59.4----
2024-04-14 05:56 am--- 1.6 134.9 W--- 59.4----
2024-04-14 05:26 am--- 2.0 44.9 W--- 59.4----
2024-04-14 04:56 am--- 2.0 134.8 W--- 59.4----
2024-04-14 04:26 am--- 2.0 124.6 W--- 59.4----
2024-04-14 03:56 am--- 2.0 54.3 W--- 59.4----
2024-04-14 03:26 am--- 2.0 44.2 W--- 59.4----
2024-04-14 02:56 am--- 2.3 54.1 W--- 59.4----
2024-04-14 02:26 am--- 2.3 54.1 W--- 59.4----
2024-04-14 01:56 am--- 2.3 44.1 W--- 59.5----
2024-04-14 01:26 am--- 2.3 44.1 W--- 59.5----
2024-04-14 12:56 am--- 2.3 44.1 W--- 59.5----
2024-04-14 12:26 am--- 2.3 44.1WNW--- 59.5----
2024-04-13 11:56 pm--- 2.3 43.9 W--- 59.4----
2024-04-13 11:26 pm--- 2.3 43.8 W--- 59.5----
2024-04-13 10:56 pm--- 2.3 133.9 W--- 59.5----
2024-04-13 10:26 pm--- 2.3 43.7 W--- 59.5----
2024-04-13 09:56 pm--- 2.0 113.4 W--- 59.5----
2024-04-13 09:26 pm--- 1.6 133.4 W--- 59.7----
2024-04-13 08:56 pm--- 1.3 114.4WNW--- 59.7----
2024-04-13 08:26 pm--- 1.6 114.6WNW--- 59.7----
2024-04-13 07:56 pm--- 1.3 104.4 W--- 59.7----
2024-04-13 07:26 pm--- 1.6 124.6WNW--- 59.7----
2024-04-13 06:56 pm--- 1.3 114.5 W--- 59.9----
2024-04-13 06:26 pm--- 1.3 134.7WNW--- 59.9----
2024-04-13 05:56 pm--- 1.3 134.7 W--- 60.1----
2024-04-13 05:26 pm--- 1.3 114.4WNW--- 60.1----
2024-04-13 04:56 pm--- 1.3 114.6 W--- 60.3----
2024-04-13 04:26 pm--- 1.3 104.4WNW--- 60.3----
2024-04-13 03:56 pm--- 1.6 114.2WNW--- 60.1----

Detailed Wave Summary
for 46254 as of (4:26 pm PDT)
2326 GMT on 04/14/2024:

These wave data are displayed in rounded times.

     

Click on the graph icon in the table below to see a time series plot of the last five days of that observation.

5-day plot - Significant Wave Height Significant Wave Height (WVHT): 3.6 ft
5-day plot - Swell Height Swell Height (SwH): 1.6 ft
5-day plot - Swell Period Swell Period (SwP): 10.5 sec
5-day plot - Swell Direction Swell Direction (SwD): W
5-day plot - Wind Wave Height Wind Wave Height (WWH): 3.3 ft
5-day plot - Wind Wave Period Wind Wave Period (WWP): 9.9 sec
5-day plot - Wind Wave Direction Wind Wave Direction (WWD):WNW
5-day plot - Wave Steepness Wave Steepness (STEEPNESS): AVERAGE
5-day plot - Average Wave Period Average Wave Period (APD): 7.4 sec
Previous observations
TIME
(PDT)
5-day plot - Wave Height
WVHT
ft
5-day plot - Swell Height
SwH
ft
5-day plot - Swell Period
SwP
sec
5-day plot - Swell Direction
SwD
 
5-day plot - Wind Wave Height
WWH
ft
5-day plot - Wind Wave Period
WWP
sec
5-day plot - Wind Wave Direction
WWD
 
5-day plot - Wave Steepness
STEEPNESS
 
5-day plot - Average Wave Period
APD
sec
2024-04-14 03:56 pm 3.3 1.6 11.8WNW 3.0 9.1 WNW AVERAGE 6.8
2024-04-14 03:26 pm 3.3 1.6 11.8WNW 3.0 9.9 WNW AVERAGE 7.5
2024-04-14 02:56 pm 3.3 1.6 12.5WNW 3.0 9.9 WNW AVERAGE 7.5
2024-04-14 02:26 pm 3.0 1.6 10.5WNW 2.3 9.9 WNW AVERAGE 7.5
2024-04-14 01:56 pm 3.0 1.6 11.1WNW 2.3 9.9 WNW AVERAGE 7.7
2024-04-14 01:26 pm 2.6 1.6 10.5WNW 2.3 9.9 WNW AVERAGE 7.5
2024-04-14 12:56 pm 2.6 1.6 11.1WNW 2.0 9.1 WNW N/A 7.5
2024-04-14 12:26 pm 2.6 1.6 11.1WNW 2.0 9.9 WNW N/A 7.5
2024-04-14 11:56 am 2.3 1.6 10.5WNW 2.0 9.9 WNW N/A 7.6
2024-04-14 11:26 am 2.3 1.6 11.8WNW 2.0 9.9 WNW N/A 7.8
2024-04-14 10:56 am 2.3 1.3 11.1WNW 2.0 9.1 WNW N/A 7.2
2024-04-14 10:26 am 2.3 1.3 10.5WNW 1.6 9.9 WNW N/A 7.1
2024-04-14 09:56 am 2.3 1.3 11.1WNW 2.0 9.9 WNW N/A 7.0
2024-04-14 09:26 am 2.3 1.3 11.8WNW 1.6 9.9 WNW N/A 6.7
2024-04-14 08:56 am 2.3 1.3 10.5WNW 2.0 9.9 WNW N/A 6.6
2024-04-14 08:26 am 2.0 1.3 11.1WNW 1.6 9.9 WNW N/A 6.0
2024-04-14 07:56 am 2.0 1.0 10.5WNW 1.6 4.8 W N/A 5.6
2024-04-14 07:26 am 2.0 1.0 11.8WNW 1.6 9.9 WNW N/A 5.8
2024-04-14 06:56 am 2.0 1.0 10.5WNW 1.6 9.9 W N/A 5.5
2024-04-14 06:26 am 2.0 0.7 12.5 W 1.6 5.0 W N/A 5.1
2024-04-14 05:56 am 1.6 0.7 12.5 W 1.6 4.8 W N/A 4.9
2024-04-14 05:26 am 2.0 0.7 11.8 W 1.6 4.3 W N/A 4.9
2024-04-14 04:56 am 2.0 0.7 12.5 W 1.6 4.3 W N/A 4.8
2024-04-14 04:26 am 2.0 0.7 11.8 W 1.6 4.2 W N/A 4.6
2024-04-14 03:56 am 2.0 0.7 12.5 W 2.0 4.5 W N/A 4.3
2024-04-14 03:26 am 2.0 0.7 12.5WNW 2.0 4.2 W N/A 4.2
2024-04-14 02:56 am 2.3 0.7 13.3 W 2.0 4.5 W N/A 4.1
2024-04-14 02:26 am 2.3 0.7 12.5WNW 2.0 4.5 W N/A 4.1
2024-04-14 01:56 am 2.3 0.7 12.5 W 2.3 4.2 W N/A 4.1
2024-04-14 01:26 am 2.3 0.7 15.4WNW 2.3 4.2 W N/A 4.1
2024-04-14 12:56 am 2.3 0.7 13.3 W 2.3 4.2 W N/A 4.1
2024-04-14 12:26 am 2.3 1.0 12.5 W 2.0 3.7 WNW N/A 4.1
2024-04-13 11:56 pm 2.3 0.7 13.3 W 2.3 4.0 W N/A 3.9
2024-04-13 11:26 pm 2.3 0.7 15.4 W 2.0 4.0 W N/A 3.8
2024-04-13 10:56 pm 2.3 1.0 13.3 W 2.0 3.6 WNW N/A 3.9
2024-04-13 10:26 pm 2.3 0.7 13.3WNW 2.0 3.6 W N/A 3.7
2024-04-13 09:56 pm 2.0 0.7 10.5 W 2.0 2.9 W N/A 3.4
2024-04-13 09:26 pm 1.6 0.7 13.3 W 1.6 9.9 WNW N/A 3.4
2024-04-13 08:56 pm 1.3 0.7 11.1WNW 1.3 9.9 W N/A 4.4
2024-04-13 08:26 pm 1.6 0.7 11.1WNW 1.3 9.9 WNW N/A 4.6
2024-04-13 07:56 pm 1.3 0.7 11.8WNW 1.3 9.9 W N/A 4.4
2024-04-13 07:26 pm 1.6 0.7 11.8WNW 1.3 9.9 WNW N/A 4.6
2024-04-13 06:56 pm 1.3 0.7 10.5 W 1.3 9.1 W N/A 4.5
2024-04-13 06:26 pm 1.3 0.7 12.5WNW 1.3 8.3 W N/A 4.7
2024-04-13 05:56 pm 1.3 0.7 12.5 W 1.3 9.9 W N/A 4.7
2024-04-13 05:26 pm 1.3 0.7 11.1WNW 1.3 9.1 W N/A 4.4
2024-04-13 04:56 pm 1.3 0.7 10.5 W 1.3 9.9 W N/A 4.6
2024-04-13 04:26 pm 1.3 0.7 11.8 W 1.3 9.9 WNW N/A 4.4
2024-04-13 03:56 pm 1.6 0.7 11.1WNW 1.3 9.9 W N/A 4.2

Plot of wave energy versus frequency (and period)